Regional Weather Roundup
Issued by NWS

Home | Current Version | Previous Version | Text Only | Print | Product List | Glossary Off
Versions: 1 2 3 4 5 6 7 8 9 10 11 12 13 14 15 16 17 18 19 20 21 22 23 24 25 26 27 28 29 30 31 32 33 34 35 36 37 38 39 40 41 42 43 44 45 46 47 48 49 50

924
ASUS45 KPSR 230810
RWRAZ

ARIZONA HOURLY REGIONAL WEATHER ROUNDUP
NATIONAL WEATHER SERVICE PHOENIX AZ
100 AM MST MON JAN 23 2017

NOTE: FAIR INDICATES FEW OR NO CLOUDS BELOW 12,000 FEET WITH NO
SIGNIFICANT WEATHER AND/OR OBSTRUCTIONS TO VISIBILITY.

AZZ001>003-036-230900-
NORTHWEST ARIZONA

CITY           SKY/WX    TMP DP  RH WIND       PRES   REMARKS
BULLHEAD CITY  CLOUDY    54  46  76 CALM      29.87F
KINGMAN        CLOUDY    51  30  44 S21G28    29.86R
$$

AZZ004>008-015-016-018-230900-
NORTH CENTRAL ARIZONA

CITY           SKY/WX    TMP DP  RH WIND       PRES   REMARKS
GRAND CANYON   CLOUDY    31  29  92 S13       29.90F WCI  21
WILLIAMS       CLOUDY    30  28  93 S28G37    29.93F FOG     WCI  16
PRESCOTT       PTCLDY    37  32  82 S9        29.97F WCI  30
FLAGSTAFF      LGT SNOW  29  28  96 SW18G26   29.99F FOG     WCI  16
PAYSON         CLOUDY    39  30  70 VRB5      30.11F
PAGE           MOCLDY    41  29  62 S15G23    29.86F
$$

AZZ009>014-017-230900-
NORTHEAST ARIZONA

CITY           SKY/WX    TMP DP  RH WIND       PRES   REMARKS
WINSLOW        PTCLDY    41  29  62 S15G28    29.99F
SAINT JOHNS    CLOUDY    34  31  88 VRB3      30.03F
SHOW LOW       CLEAR     32  23  69 S28G33    30.03F WCI  18
$$

AZZ023-230900-
GREATER PHOENIX AREA

CITY           SKY/WX    TMP DP  RH WIND       PRES   REMARKS
PHOENIX        LGT RAIN  54  42  64 SE12      29.99F
BUCKEYE        CLOUDY    54  41  62 E9        29.98F
LUKE AFB       MOCLDY    51  48  92 CALM      29.98F
DEER VALLEY    CLOUDY    53  40  61 E6        29.99F
SCOTTSDALE     CLOUDY    52  41  66 CALM      30.01F
MESA-GATEWAY   CLOUDY    50  39  66 SE9       30.03F
$$

AZZ027-028-230900-
SOUTHWEST MARICOPA COUNTY AND PINAL COUNTY

CITY           SKY/WX    TMP DP  RH WIND       PRES   REMARKS
CASA GRANDE    CLOUDY    49  41  74 E6        30.03F
GILA BEND      CLOUDY    55  44  67 SE7       29.96F
$$

AZZ503-504-507>509-230900-
SOUTHEAST ARIZONA

CITY           SKY/WX    TMP DP  RH WIND       PRES   REMARKS
TUCSON         CLEAR     47  32  56 E10       30.09F
DAVIS-MONTHAN  CLEAR     41  34  76 SE8       30.08F
NOGALES        CLEAR     39  26  59 SE3       30.11F
SIERRA VISTA   CLEAR     45  25  45 NE5       30.12F
DOUGLAS        CLEAR     40  33  76 SE7       30.12F
SAFFORD        CLEAR     35  32  88 SE3       30.09F
$$

AZZ020-021-025-026-031-230900-
SOUTHWEST ARIZONA

CITY           SKY/WX    TMP DP  RH WIND       PRES   REMARKS
YUMA           CLEAR     59  49  69 SE22      29.90F
$$

CAZ031-033-041-043-047-048-061-230900-
SOUTHERN CALIFORNIA

CITY           SKY/WX    TMP DP  RH WIND       PRES   REMARKS
DOWNTOWN L.A.  CLOUDY    54  52  93 VRB5      29.90S
L.A. AIRPORT   MOCLDY    55  52  89 SW14G22   29.90F
SAN DIEGO      CLOUDY    60  53  77 SW10      30.00F
BURBANK        CLOUDY    52  48  86 SE5       29.89S
ONTARIO        RAIN      52  51  97 S12       29.88F
PALM SPRINGS   LGT RAIN  49  49 100 VRB3      29.93F
EL CENTRO NAS  CLOUDY    54  51  90 NW7       29.93R
IMPERIAL       PTCLDY    55  53  93 CALM      29.90S
BLYTHE         CLOUDY    57  46  66 S6        29.91F
NEEDLES        CLOUDY    59  41  51 S9        29.86F
$$

NVZ020-UTZ003-230900-
SOUTHERN NEVADA-UTAH

CITY           SKY/WX    TMP DP  RH WIND       PRES   REMARKS
LAS VEGAS      CLOUDY    49  42  77 SE8       29.76F
SALT LAKE CITY CLOUDY    38  31  76 S15       29.64F WCI  29
$$

NMZ009-TXZ055-230900-
NEW MEXICO-WEST TEXAS

CITY           SKY/WX    TMP DP  RH WIND       PRES   REMARKS
ALBUQUERQUE    CLOUDY    38  31  76 W5        30.07F WCI  34
EL PASO        CLEAR     45  27  49 CALM      30.09F
$$


........................KEY........................
SKY/WX - SKY CONDITION/WEATHER
TMP    - TEMPERATURE IN FAHRENHEIT
DP     - DEW POINT IN FAHRENHEIT
RH     - RELATIVE HUMIDITY IN PERCENT
WIND   - DIRECTION AND SPEED IN MILES PER HOUR (MPH)
VRB    - VARIABLE WIND DIRECTION
PRES   - MEAN SEA LEVEL PRESSURE IN INCHES OF MERCURY
         F - FALLING PRESSURE   R - RISING PRESSURE
         S - STEADY PRESSURE
VSB    - VISIBILITY IN MILES
HX     - HEAT INDEX IN FAHRENHEIT
WCI    - WIND CHILL INDEX IN FAHRENHEIT
TC     - TEMPERATURE IN CELSIUS WHICH IS ALSO KNOWN AS
         TEMPERATURE IN CENTIGRADE
AFB    - AIR FORCE BASE
         LUKE AFB IS LUKE AIR FORCE BASE
         DAVIS-MONTHAN IS DAVIS-MONTHAN AIR FORCE BASE
NAS    - NAVAL AIR STATION
         EL CENTRO NAS IS EL CENTRO NAVAL AIR STATION
N/A    - NOT AVAILABLE





USA.gov is the U.S. government's official web portal to all federal, state and local government web resources and services.